contact:dominique.lefevre@mio.osupytheas.fr, maurice.libes@osupytheas.fr, didier.mallarino@osupytheas.fr
Project:EMSO http://www.emso-fr.org/EMSO-France
Depth: 2436.0 m
Title:EMSO Ligure Ouest : Data MII capteur MICROCAT
DateTime_Computer,Latitude,Longitude,Temperature,Conductivity,Pressure,DateTime_Instrument
DateTime_Computer,Latitude,Longitude,degC,S m-1,dbar,DateTime_Instrument
2019-12-10T00:01:21Z,42.805,6.029,13.2960,4.59955,2469.783,2019-12-10T02:01:51Z
2019-12-10T00:04:25Z,42.805,6.029,13.2957,4.59956,2469.76,2019-12-10T02:04:54Z
2019-12-10T00:07:28Z,42.805,6.029,13.2958,4.59956,2469.773,2019-12-10T02:07:57Z
2019-12-10T00:10:31Z,42.805,6.029,13.2957,4.59955,2469.737,2019-12-10T02:11:01Z
2019-12-10T00:13:34Z,42.805,6.029,13.2957,4.59956,2469.773,2019-12-10T02:14:04Z
2019-12-10T00:16:37Z,42.805,6.029,13.2957,4.59956,2469.76,2019-12-10T02:17:07Z
2019-12-10T00:19:41Z,42.805,6.029,13.2957,4.59956,2469.773,2019-12-10T02:20:10Z
2019-12-10T00:22:44Z,42.805,6.029,13.2957,4.59956,2469.783,2019-12-10T02:23:13Z
2019-12-10T00:25:47Z,42.805,6.029,13.2958,4.59956,2469.773,2019-12-10T02:26:17Z
2019-12-10T00:28:50Z,42.805,6.029,13.2961,4.59955,2469.783,2019-12-10T02:29:20Z
2019-12-10T00:31:53Z,42.805,6.029,13.2959,4.59956,2469.737,2019-12-10T02:32:23Z
2019-12-10T00:34:57Z,42.805,6.029,13.2958,4.59956,2469.773,2019-12-10T02:35:26Z
2019-12-10T00:38:00Z,42.805,6.029,13.2958,4.59956,2469.76,2019-12-10T02:38:29Z
2019-12-10T00:41:03Z,42.805,6.029,13.2957,4.59956,2469.773,2019-12-10T02:41:33Z
2019-12-10T00:44:06Z,42.805,6.029,13.2961,4.59956,2469.76,2019-12-10T02:44:36Z
2019-12-10T00:47:09Z,42.805,6.029,13.2961,4.59956,2469.797,2019-12-10T02:47:39Z
2019-12-10T00:50:13Z,42.805,6.029,13.2959,4.59956,2469.727,2019-12-10T02:50:42Z
2019-12-10T00:53:16Z,42.805,6.029,13.2959,4.59958,2469.76,2019-12-10T02:53:46Z
2019-12-10T00:56:19Z,42.805,6.029,13.2956,4.59956,2469.783,2019-12-10T02:56:49Z
2019-12-10T00:59:23Z,42.805,6.029,13.2959,4.59956,2469.76,2019-12-10T02:59:52Z
2019-12-10T01:02:26Z,42.805,6.029,13.2961,4.59956,2469.737,2019-12-10T03:02:55Z
2019-12-10T01:05:29Z,42.805,6.029,13.2959,4.59956,2469.783,2019-12-10T03:05:59Z
2019-12-10T01:08:32Z,42.805,6.029,13.2959,4.59956,2469.783,2019-12-10T03:09:02Z
2019-12-10T01:11:35Z,42.805,6.029,13.2958,4.59956,2469.821,2019-12-10T03:12:05Z
2019-12-10T01:14:38Z,42.805,6.029,13.2955,4.59956,2469.76,2019-12-10T03:15:08Z
2019-12-10T01:17:42Z,42.805,6.029,13.2957,4.59955,2469.783,2019-12-10T03:18:11Z
2019-12-10T01:20:45Z,42.805,6.029,13.2958,4.59955,2469.797,2019-12-10T03:21:14Z
2019-12-10T01:23:48Z,42.805,6.029,13.2959,4.59955,2469.797,2019-12-10T03:24:18Z
2019-12-10T01:26:51Z,42.805,6.029,13.2957,4.59956,2469.797,2019-12-10T03:27:21Z
2019-12-10T01:29:54Z,42.805,6.029,13.2959,4.59956,2469.783,2019-12-10T03:30:24Z
2019-12-10T01:32:58Z,42.805,6.029,13.2960,4.59956,2469.783,2019-12-10T03:33:27Z
2019-12-10T01:36:01Z,42.805,6.029,13.2958,4.59956,2469.806,2019-12-10T03:36:31Z
2019-12-10T01:39:04Z,42.805,6.029,13.2956,4.59956,2469.806,2019-12-10T03:39:34Z
2019-12-10T01:42:07Z,42.805,6.029,13.2958,4.59957,2469.821,2019-12-10T03:42:37Z
2019-12-10T01:45:10Z,42.805,6.029,13.2959,4.59956,2469.783,2019-12-10T03:45:40Z
2019-12-10T01:48:14Z,42.805,6.029,13.2957,4.59956,2469.783,2019-12-10T03:48:43Z
2019-12-10T01:51:17Z,42.805,6.029,13.2957,4.59956,2469.783,2019-12-10T03:51:47Z
2019-12-10T01:54:20Z,42.805,6.029,13.2958,4.59956,2469.821,2019-12-10T03:54:50Z
2019-12-10T01:57:23Z,42.805,6.029,13.2961,4.59956,2469.83,2019-12-10T03:57:53Z
2019-12-10T02:00:26Z,42.805,6.029,13.2959,4.59956,2469.821,2019-12-10T04:00:56Z
2019-12-10T02:03:30Z,42.805,6.029,13.2956,4.59956,2469.806,2019-12-10T04:03:59Z
2019-12-10T02:06:33Z,42.805,6.029,13.2957,4.59955,2469.83,2019-12-10T04:07:03Z
2019-12-10T02:09:36Z,42.805,6.029,13.2958,4.59956,2469.806,2019-12-10T04:10:06Z
2019-12-10T02:12:39Z,42.805,6.029,13.2960,4.59955,2469.806,2019-12-10T04:13:09Z
2019-12-10T02:15:43Z,42.805,6.029,13.2963,4.59956,2469.806,2019-12-10T04:16:12Z
2019-12-10T02:18:46Z,42.805,6.029,13.2958,4.59955,2469.821,2019-12-10T04:19:15Z
2019-12-10T02:21:49Z,42.805,6.029,13.2958,4.59956,2469.83,2019-12-10T04:22:19Z
2019-12-10T02:24:52Z,42.805,6.029,13.2955,4.59957,2469.821,2019-12-10T04:25:22Z
2019-12-10T02:27:55Z,42.805,6.029,13.2958,4.59956,2469.83,2019-12-10T04:28:25Z
2019-12-10T02:30:59Z,42.805,6.029,13.2956,4.59956,2469.806,2019-12-10T04:31:28Z
2019-12-10T02:34:02Z,42.805,6.029,13.2958,4.59956,2469.83,2019-12-10T04:34:31Z
2019-12-10T02:37:05Z,42.805,6.029,13.2960,4.59957,2469.83,2019-12-10T04:37:35Z
2019-12-10T02:40:08Z,42.805,6.029,13.2960,4.59956,2469.853,2019-12-10T04:40:38Z
2019-12-10T02:43:11Z,42.805,6.029,13.2957,4.59957,2469.853,2019-12-10T04:43:41Z
2019-12-10T02:46:15Z,42.805,6.029,13.2958,4.59956,2469.853,2019-12-10T04:46:44Z
2019-12-10T02:49:18Z,42.805,6.029,13.2956,4.59956,2469.83,2019-12-10T04:49:47Z
2019-12-10T02:52:21Z,42.805,6.029,13.2955,4.59956,2469.867,2019-12-10T04:52:51Z
2019-12-10T02:55:24Z,42.805,6.029,13.2953,4.59956,2469.853,2019-12-10T04:55:54Z
2019-12-10T02:58:28Z,42.805,6.029,13.2958,4.59956,2469.853,2019-12-10T04:58:57Z
2019-12-10T03:01:31Z,42.805,6.029,13.2958,4.59957,2469.876,2019-12-10T05:02:00Z
2019-12-10T03:04:34Z,42.805,6.029,13.2960,4.59956,2469.89,2019-12-10T05:05:04Z
2019-12-10T03:07:37Z,42.805,6.029,13.2961,4.59956,2469.89,2019-12-10T05:08:07Z
2019-12-10T03:10:40Z,42.805,6.029,13.2959,4.59956,2469.867,2019-12-10T05:11:10Z
2019-12-10T03:13:44Z,42.805,6.029,13.2959,4.59956,2469.83,2019-12-10T05:14:13Z
2019-12-10T03:16:47Z,42.805,6.029,13.2958,4.59958,2469.853,2019-12-10T05:17:16Z
2019-12-10T03:19:50Z,42.805,6.029,13.2960,4.59957,2469.853,2019-12-10T05:20:20Z
2019-12-10T03:22:53Z,42.805,6.029,13.2957,4.59956,2469.853,2019-12-10T05:23:23Z
2019-12-10T03:25:57Z,42.805,6.029,13.2957,4.59956,2469.876,2019-12-10T05:26:26Z
2019-12-10T03:29:00Z,42.805,6.029,13.2959,4.59956,2469.876,2019-12-10T05:29:30Z
2019-12-10T03:32:03Z,42.805,6.029,13.2961,4.59956,2469.89,2019-12-10T05:32:33Z
2019-12-10T03:35:06Z,42.805,6.029,13.2961,4.59956,2469.89,2019-12-10T05:35:36Z
2019-12-10T03:38:10Z,42.805,6.029,13.2961,4.59956,2469.89,2019-12-10T05:38:39Z
2019-12-10T03:41:13Z,42.805,6.029,13.2952,4.59956,2469.876,2019-12-10T05:41:43Z
2019-12-10T03:44:16Z,42.805,6.029,13.2962,4.59956,2469.89,2019-12-10T05:44:46Z
2019-12-10T03:47:19Z,42.805,6.029,13.2959,4.59956,2469.853,2019-12-10T05:47:49Z
2019-12-10T03:50:23Z,42.805,6.029,13.2958,4.59956,2469.89,2019-12-10T05:50:52Z
2019-12-10T03:53:26Z,42.805,6.029,13.2962,4.59956,2469.937,2019-12-10T05:53:55Z
2019-12-10T03:56:29Z,42.805,6.029,13.2963,4.59958,2469.876,2019-12-10T05:56:59Z
2019-12-10T03:59:32Z,42.805,6.029,13.2958,4.59956,2469.9,2019-12-10T06:00:02Z
2019-12-10T04:02:35Z,42.805,6.029,13.2958,4.59956,2469.914,2019-12-10T06:03:05Z
2019-12-10T04:05:39Z,42.805,6.029,13.2963,4.59956,2469.9,2019-12-10T06:06:08Z
2019-12-10T04:08:42Z,42.805,6.029,13.2961,4.59956,2469.923,2019-12-10T06:09:11Z
2019-12-10T04:11:45Z,42.805,6.029,13.2958,4.59956,2469.923,2019-12-10T06:12:15Z
2019-12-10T04:14:48Z,42.805,6.029,13.2960,4.59957,2469.914,2019-12-10T06:15:18Z
2019-12-10T04:17:51Z,42.805,6.029,13.2957,4.59956,2469.923,2019-12-10T06:18:21Z
2019-12-10T04:20:55Z,42.805,6.029,13.2958,4.59956,2469.937,2019-12-10T06:21:24Z
2019-12-10T04:23:58Z,42.805,6.029,13.2958,4.59957,2469.9,2019-12-10T06:24:27Z
2019-12-10T04:27:01Z,42.805,6.029,13.2960,4.59956,2469.923,2019-12-10T06:27:31Z
2019-12-10T04:30:04Z,42.805,6.029,13.2961,4.59956,2469.923,2019-12-10T06:30:34Z
2019-12-10T04:33:07Z,42.805,6.029,13.2958,4.59958,2469.923,2019-12-10T06:33:37Z
2019-12-10T04:36:11Z,42.805,6.029,13.2960,4.59957,2469.96,2019-12-10T06:36:40Z
2019-12-10T04:39:14Z,42.805,6.029,13.2955,4.59958,2469.923,2019-12-10T06:39:44Z
2019-12-10T04:42:17Z,42.805,6.029,13.2960,4.59956,2469.947,2019-12-10T06:42:47Z
2019-12-10T04:45:20Z,42.805,6.029,13.2958,4.59956,2469.947,2019-12-10T06:45:50Z
2019-12-10T04:48:24Z,42.805,6.029,13.2961,4.59958,2469.923,2019-12-10T06:48:53Z
2019-12-10T04:51:27Z,42.805,6.029,13.2955,4.59956,2469.947,2019-12-10T06:51:57Z
2019-12-10T04:54:30Z,42.805,6.029,13.2961,4.59957,2469.914,2019-12-10T06:55:00Z
2019-12-10T04:57:33Z,42.805,6.029,13.2958,4.59956,2469.947,2019-12-10T06:58:03Z
2019-12-10T05:00:36Z,42.805,6.029,13.2959,4.59956,2469.96,2019-12-10T07:01:06Z
2019-12-10T05:03:40Z,42.805,6.029,13.2961,4.59956,2469.937,2019-12-10T07:04:09Z
2019-12-10T05:06:43Z,42.805,6.029,13.2960,4.59958,2469.96,2019-12-10T07:07:13Z
2019-12-10T05:09:46Z,42.805,6.029,13.2961,4.59956,2469.96,2019-12-10T07:10:16Z
2019-12-10T05:12:49Z,42.805,6.029,13.2959,4.59958,2469.97,2019-12-10T07:13:19Z
2019-12-10T05:15:53Z,42.805,6.029,13.2959,4.59957,2469.937,2019-12-10T07:16:22Z
2019-12-10T05:18:56Z,42.805,6.029,13.2954,4.59956,2469.923,2019-12-10T07:19:25Z
2019-12-10T05:21:59Z,42.805,6.029,13.2961,4.59957,2469.97,2019-12-10T07:22:29Z
2019-12-10T05:25:02Z,42.805,6.029,13.2961,4.59956,2469.984,2019-12-10T07:25:32Z
2019-12-10T05:28:06Z,42.805,6.029,13.2962,4.59960,2469.97,2019-12-10T07:28:35Z
2019-12-10T05:31:09Z,42.805,6.029,13.2959,4.59956,2469.947,2019-12-10T07:31:39Z
2019-12-10T05:34:12Z,42.805,6.029,13.2957,4.59957,2469.97,2019-12-10T07:34:42Z
2019-12-10T05:37:15Z,42.805,6.029,13.2961,4.59957,2469.96,2019-12-10T07:37:45Z
2019-12-10T05:40:18Z,42.805,6.029,13.2961,4.59957,2469.947,2019-12-10T07:40:48Z
2019-12-10T05:43:22Z,42.805,6.029,13.2958,4.59956,2469.97,2019-12-10T07:43:51Z
2019-12-10T05:46:25Z,42.805,6.029,13.2957,4.59957,2469.97,2019-12-10T07:46:55Z
2019-12-10T05:49:28Z,42.805,6.029,13.2961,4.59956,2469.947,2019-12-10T07:49:58Z
2019-12-10T05:52:31Z,42.805,6.029,13.2960,4.59957,2469.97,2019-12-10T07:53:01Z
2019-12-10T05:55:35Z,42.805,6.029,13.2961,4.59957,2469.947,2019-12-10T07:56:04Z
2019-12-10T05:58:38Z,42.805,6.029,13.2959,4.59956,2470.007,2019-12-10T07:59:08Z
2019-12-10T06:01:41Z,42.805,6.029,13.2959,4.59957,2469.947,2019-12-10T08:02:11Z
2019-12-10T06:04:44Z,42.805,6.029,13.2958,4.59956,2469.97,2019-12-10T08:05:14Z
2019-12-10T06:07:47Z,42.805,6.029,13.2956,4.59956,2469.96,2019-12-10T08:08:17Z
2019-12-10T06:10:51Z,42.805,6.029,13.2957,4.59956,2469.923,2019-12-10T08:11:20Z
2019-12-10T06:13:54Z,42.805,6.029,13.2964,4.59958,2469.923,2019-12-10T08:14:24Z
2019-12-10T06:16:57Z,42.805,6.029,13.2959,4.59956,2469.947,2019-12-10T08:17:27Z
2019-12-10T06:20:00Z,42.805,6.029,13.2960,4.59956,2469.923,2019-12-10T08:20:30Z
2019-12-10T06:23:04Z,42.805,6.029,13.2959,4.59956,2469.947,2019-12-10T08:23:34Z
2019-12-10T06:26:07Z,42.805,6.029,13.2958,4.59956,2469.947,2019-12-10T08:26:37Z
2019-12-10T06:29:10Z,42.805,6.029,13.2959,4.59958,2469.947,2019-12-10T08:29:40Z
2019-12-10T06:32:14Z,42.805,6.029,13.2957,4.59958,2470.007,2019-12-10T08:32:43Z
2019-12-10T06:35:17Z,42.805,6.029,13.2957,4.59957,2469.947,2019-12-10T08:35:46Z
2019-12-10T06:38:20Z,42.805,6.029,13.2957,4.59958,2469.947,2019-12-10T08:38:50Z
2019-12-10T06:41:23Z,42.805,6.029,13.2958,4.59957,2469.923,2019-12-10T08:41:53Z
2019-12-10T06:44:26Z,42.805,6.029,13.2958,4.59958,2469.937,2019-12-10T08:44:56Z
2019-12-10T06:47:30Z,42.805,6.029,13.2957,4.59956,2469.923,2019-12-10T08:47:59Z
2019-12-10T06:50:33Z,42.805,6.029,13.2962,4.59956,2469.923,2019-12-10T08:51:02Z
2019-12-10T06:53:36Z,42.805,6.029,13.2958,4.59960,2469.96,2019-12-10T08:54:06Z
2019-12-10T06:56:39Z,42.805,6.029,13.2963,4.59956,2469.96,2019-12-10T08:57:09Z
2019-12-10T06:59:42Z,42.805,6.029,13.2959,4.59956,2469.96,2019-12-10T09:00:12Z
2019-12-10T07:02:46Z,42.805,6.029,13.2961,4.59958,2469.947,2019-12-10T09:03:15Z
2019-12-10T07:05:49Z,42.805,6.029,13.2957,4.59958,2469.914,2019-12-10T09:06:19Z
2019-12-10T07:08:52Z,42.805,6.029,13.2957,4.59958,2469.96,2019-12-10T09:09:22Z
2019-12-10T07:11:55Z,42.805,6.029,13.2961,4.59956,2469.96,2019-12-10T09:12:25Z
2019-12-10T07:14:58Z,42.805,6.029,13.2957,4.59958,2469.947,2019-12-10T09:15:28Z
2019-12-10T07:18:01Z,42.805,6.029,13.2953,4.59956,2469.947,2019-12-10T09:18:31Z
2019-12-10T07:21:05Z,42.805,6.029,13.2959,4.59958,2469.947,2019-12-10T09:21:34Z
2019-12-10T07:24:08Z,42.805,6.029,13.2961,4.59956,2469.937,2019-12-10T09:24:38Z
2019-12-10T07:27:11Z,42.805,6.029,13.2961,4.59956,2469.937,2019-12-10T09:27:41Z
2019-12-10T07:30:14Z,42.805,6.029,13.2958,4.59958,2469.96,2019-12-10T09:30:44Z
2019-12-10T07:33:18Z,42.805,6.029,13.2964,4.59956,2469.96,2019-12-10T09:33:47Z
2019-12-10T07:36:21Z,42.805,6.029,13.2962,4.59956,2469.947,2019-12-10T09:36:50Z
2019-12-10T07:39:24Z,42.805,6.029,13.2959,4.59956,2469.923,2019-12-10T09:39:54Z
2019-12-10T07:42:27Z,42.805,6.029,13.2954,4.59956,2469.909,2019-12-10T09:42:57Z
2019-12-10T07:45:30Z,42.805,6.029,13.2960,4.59955,2469.923,2019-12-10T09:46:00Z
2019-12-10T07:48:33Z,42.805,6.029,13.2960,4.59956,2469.947,2019-12-10T09:49:03Z
2019-12-10T07:51:37Z,42.805,6.029,13.2960,4.59956,2469.96,2019-12-10T09:52:06Z
2019-12-10T07:54:40Z,42.805,6.029,13.2957,4.59956,2469.923,2019-12-10T09:55:10Z
2019-12-10T07:57:43Z,42.805,6.029,13.2961,4.59956,2469.947,2019-12-10T09:58:13Z
2019-12-10T08:00:46Z,42.805,6.029,13.2961,4.59956,2469.923,2019-12-10T10:01:16Z
2019-12-10T08:03:49Z,42.805,6.029,13.2959,4.59956,2469.923,2019-12-10T10:04:19Z
2019-12-10T08:06:53Z,42.805,6.029,13.2957,4.59957,2469.9,2019-12-10T10:07:22Z
2019-12-10T08:09:56Z,42.805,6.029,13.2967,4.59956,2469.9,2019-12-10T10:10:26Z
2019-12-10T08:12:59Z,42.805,6.029,13.2957,4.59964,2469.947,2019-12-10T10:13:29Z
2019-12-10T08:16:02Z,42.805,6.029,13.2960,4.59957,2469.96,2019-12-10T10:16:32Z
2019-12-10T08:19:06Z,42.805,6.029,13.2957,4.59956,2469.947,2019-12-10T10:19:35Z
2019-12-10T08:22:09Z,42.805,6.029,13.2957,4.59958,2469.923,2019-12-10T10:22:38Z
2019-12-10T08:25:12Z,42.805,6.029,13.2961,4.59964,2469.937,2019-12-10T10:25:42Z
2019-12-10T08:28:15Z,42.805,6.029,13.2961,4.59961,2469.9,2019-12-10T10:28:45Z
2019-12-10T08:31:18Z,42.805,6.029,13.2960,4.59959,2469.9,2019-12-10T10:31:48Z
2019-12-10T08:34:22Z,42.805,6.029,13.2961,4.59959,2469.909,2019-12-10T10:34:51Z
2019-12-10T08:37:25Z,42.805,6.029,13.2959,4.59956,2469.923,2019-12-10T10:37:54Z
2019-12-10T08:40:28Z,42.805,6.029,13.2957,4.59958,2469.9,2019-12-10T10:40:58Z
2019-12-10T08:43:31Z,42.805,6.029,13.2960,4.59958,2469.923,2019-12-10T10:44:01Z
2019-12-10T08:46:34Z,42.805,6.029,13.2957,4.59957,2469.9,2019-12-10T10:47:04Z
2019-12-10T08:49:37Z,42.805,6.029,13.2959,4.59957,2469.923,2019-12-10T10:50:07Z
2019-12-10T08:52:41Z,42.805,6.029,13.2961,4.59956,2469.9,2019-12-10T10:53:10Z
2019-12-10T08:55:44Z,42.805,6.029,13.2957,4.59957,2469.89,2019-12-10T10:56:14Z
2019-12-10T08:58:47Z,42.805,6.029,13.2958,4.59956,2469.914,2019-12-10T10:59:17Z
2019-12-10T09:01:50Z,42.805,6.029,13.2958,4.59959,2469.89,2019-12-10T11:02:20Z
2019-12-10T09:04:53Z,42.805,6.029,13.2958,4.59958,2469.876,2019-12-10T11:05:23Z
2019-12-10T09:07:57Z,42.805,6.029,13.2958,4.59956,2469.876,2019-12-10T11:08:26Z
2019-12-10T09:11:00Z,42.805,6.029,13.2959,4.59958,2469.89,2019-12-10T11:11:30Z
2019-12-10T09:14:03Z,42.805,6.029,13.2959,4.59958,2469.923,2019-12-10T11:14:33Z
2019-12-10T09:17:06Z,42.805,6.029,13.2959,4.59958,2469.9,2019-12-10T11:17:36Z
2019-12-10T09:20:09Z,42.805,6.029,13.2961,4.59957,2469.914,2019-12-10T11:20:39Z
2019-12-10T09:23:13Z,42.805,6.029,13.2959,4.59957,2469.9,2019-12-10T11:23:42Z
2019-12-10T09:26:16Z,42.805,6.029,13.2960,4.59957,2469.914,2019-12-10T11:26:46Z
2019-12-10T09:29:19Z,42.805,6.029,13.2959,4.59958,2469.89,2019-12-10T11:29:49Z
2019-12-10T09:32:22Z,42.805,6.029,13.2960,4.59956,2469.89,2019-12-10T11:32:52Z
2019-12-10T09:35:26Z,42.805,6.029,13.2959,4.59957,2469.914,2019-12-10T11:35:55Z
2019-12-10T09:38:29Z,42.805,6.029,13.2959,4.59957,2469.876,2019-12-10T11:38:58Z
2019-12-10T09:41:32Z,42.805,6.029,13.2959,4.59957,2469.876,2019-12-10T11:42:02Z
2019-12-10T09:44:35Z,42.805,6.029,13.2958,4.59956,2469.863,2019-12-10T11:45:05Z
2019-12-10T09:47:38Z,42.805,6.029,13.2957,4.59958,2469.876,2019-12-10T11:48:08Z
2019-12-10T09:50:41Z,42.805,6.029,13.2964,4.59958,2469.876,2019-12-10T11:51:11Z
2019-12-10T09:53:45Z,42.805,6.029,13.2956,4.59958,2469.876,2019-12-10T11:54:14Z
2019-12-10T09:56:48Z,42.805,6.029,13.2957,4.59958,2469.9,2019-12-10T11:57:18Z
2019-12-10T09:59:51Z,42.805,6.029,13.2960,4.59957,2469.923,2019-12-10T12:00:21Z
2019-12-10T10:02:54Z,42.805,6.029,13.2955,4.59958,2469.914,2019-12-10T12:03:24Z
2019-12-10T10:05:57Z,42.805,6.029,13.2958,4.59957,2469.853,2019-12-10T12:06:27Z
2019-12-10T10:09:01Z,42.805,6.029,13.2959,4.59957,2469.876,2019-12-10T12:09:30Z
2019-12-10T10:12:04Z,42.805,6.029,13.2958,4.59956,2469.853,2019-12-10T12:12:33Z
2019-12-10T10:15:07Z,42.805,6.029,13.2960,4.59956,2469.876,2019-12-10T12:15:37Z
2019-12-10T10:18:10Z,42.805,6.029,13.2961,4.59956,2469.876,2019-12-10T12:18:40Z
2019-12-10T10:21:13Z,42.805,6.029,13.2956,4.59957,2469.867,2019-12-10T12:21:43Z
2019-12-10T10:24:17Z,42.805,6.029,13.2958,4.59956,2469.853,2019-12-10T12:24:46Z
2019-12-10T10:27:20Z,42.805,6.029,13.2958,4.59958,2469.867,2019-12-10T12:27:50Z
2019-12-10T10:30:23Z,42.805,6.029,13.2957,4.59957,2469.867,2019-12-10T12:30:53Z
2019-12-10T10:33:26Z,42.805,6.029,13.2961,4.59958,2469.83,2019-12-10T12:33:56Z
2019-12-10T10:36:29Z,42.805,6.029,13.2960,4.59957,2469.83,2019-12-10T12:36:59Z
2019-12-10T10:39:33Z,42.805,6.029,13.2958,4.59958,2469.853,2019-12-10T12:40:02Z
2019-12-10T10:42:36Z,42.805,6.029,13.2959,4.59956,2469.844,2019-12-10T12:43:06Z
2019-12-10T10:45:39Z,42.805,6.029,13.2957,4.59957,2469.83,2019-12-10T12:46:09Z
2019-12-10T10:48:42Z,42.805,6.029,13.2961,4.59957,2469.853,2019-12-10T12:49:12Z
2019-12-10T10:51:45Z,42.805,6.029,13.2960,4.59957,2469.876,2019-12-10T12:52:15Z
2019-12-10T10:54:49Z,42.805,6.029,13.2962,4.59958,2469.83,2019-12-10T12:55:18Z
2019-12-10T10:57:52Z,42.805,6.029,13.2959,4.59956,2469.844,2019-12-10T12:58:21Z
2019-12-10T11:00:55Z,42.805,6.029,13.2961,4.59958,2469.83,2019-12-10T13:01:25Z
2019-12-10T11:03:58Z,42.805,6.029,13.2961,4.59956,2469.863,2019-12-10T13:04:28Z
2019-12-10T11:07:01Z,42.805,6.029,13.2958,4.59956,2469.806,2019-12-10T13:07:31Z
2019-12-10T11:10:05Z,42.805,6.029,13.2959,4.59957,2469.806,2019-12-10T13:10:34Z
2019-12-10T11:13:08Z,42.805,6.029,13.2958,4.59957,2469.867,2019-12-10T13:13:37Z
2019-12-10T11:16:11Z,42.805,6.029,13.2957,4.59957,2469.844,2019-12-10T13:16:41Z
2019-12-10T11:19:14Z,42.805,6.029,13.2958,4.59958,2469.853,2019-12-10T13:19:44Z
2019-12-10T11:22:17Z,42.805,6.029,13.2964,4.59956,2469.844,2019-12-10T13:22:47Z
2019-12-10T11:25:20Z,42.805,6.029,13.2957,4.59957,2469.867,2019-12-10T13:25:50Z
2019-12-10T11:28:24Z,42.805,6.029,13.2956,4.59957,2469.853,2019-12-10T13:28:53Z
2019-12-10T11:31:27Z,42.805,6.029,13.2959,4.59957,2469.821,2019-12-10T13:31:57Z
2019-12-10T11:34:30Z,42.805,6.029,13.2961,4.59957,2469.83,2019-12-10T13:35:00Z
2019-12-10T11:37:33Z,42.805,6.029,13.2959,4.59958,2469.83,2019-12-10T13:38:03Z
2019-12-10T11:40:36Z,42.805,6.029,13.2962,4.59958,2469.806,2019-12-10T13:41:06Z
2019-12-10T11:43:40Z,42.805,6.029,13.2961,4.59957,2469.867,2019-12-10T13:44:09Z
2019-12-10T11:46:43Z,42.805,6.029,13.2958,4.59958,2469.844,2019-12-10T13:47:13Z
2019-12-10T11:49:46Z,42.805,6.029,13.2958,4.59957,2469.821,2019-12-10T13:50:16Z
2019-12-10T11:52:49Z,42.805,6.029,13.2958,4.59957,2469.821,2019-12-10T13:53:19Z
2019-12-10T11:55:52Z,42.805,6.029,13.2960,4.59957,2469.797,2019-12-10T13:56:22Z
2019-12-10T11:58:56Z,42.805,6.029,13.2958,4.59957,2469.844,2019-12-10T13:59:25Z
2019-12-10T12:01:59Z,42.805,6.029,13.2958,4.59957,2469.844,2019-12-10T14:02:28Z
2019-12-10T12:05:02Z,42.805,6.029,13.2957,4.59958,2469.806,2019-12-10T14:05:32Z
2019-12-10T12:08:05Z,42.805,6.029,13.2957,4.59959,2469.806,2019-12-10T14:08:35Z
2019-12-10T12:11:08Z,42.805,6.029,13.2958,4.59957,2469.821,2019-12-10T14:11:38Z
2019-12-10T12:14:12Z,42.805,6.029,13.2960,4.59957,2469.853,2019-12-10T14:14:41Z
2019-12-10T12:17:15Z,42.805,6.029,13.2958,4.59958,2469.806,2019-12-10T14:17:44Z
2019-12-10T12:20:18Z,42.805,6.029,13.2956,4.59958,2469.83,2019-12-10T14:20:48Z
2019-12-10T12:23:21Z,42.805,6.029,13.2957,4.59958,2469.806,2019-12-10T14:23:51Z
2019-12-10T12:26:24Z,42.805,6.029,13.2960,4.59959,2469.783,2019-12-10T14:26:54Z
2019-12-10T12:29:28Z,42.805,6.029,13.2957,4.59957,2469.821,2019-12-10T14:29:57Z
2019-12-10T12:32:31Z,42.805,6.029,13.2959,4.59957,2469.806,2019-12-10T14:33:00Z
2019-12-10T12:35:34Z,42.805,6.029,13.2960,4.59956,2469.806,2019-12-10T14:36:04Z
2019-12-10T12:38:37Z,42.805,6.029,13.2957,4.59958,2469.783,2019-12-10T14:39:07Z
2019-12-10T12:41:40Z,42.805,6.029,13.2957,4.59958,2469.783,2019-12-10T14:42:10Z
2019-12-10T12:44:44Z,42.805,6.029,13.2962,4.59957,2469.806,2019-12-10T14:45:13Z
2019-12-10T12:47:47Z,42.805,6.029,13.2957,4.59957,2469.821,2019-12-10T14:48:16Z
2019-12-10T12:50:50Z,42.805,6.029,13.2957,4.59958,2469.844,2019-12-10T14:51:20Z
2019-12-10T12:53:53Z,42.805,6.029,13.2960,4.59957,2469.806,2019-12-10T14:54:23Z
2019-12-10T12:56:56Z,42.805,6.029,13.2958,4.59957,2469.844,2019-12-10T14:57:26Z
2019-12-10T12:59:59Z,42.805,6.029,13.2960,4.59956,2469.806,2019-12-10T15:00:29Z
2019-12-10T13:03:03Z,42.805,6.029,13.2962,4.59956,2469.821,2019-12-10T15:03:32Z
2019-12-10T13:06:06Z,42.805,6.029,13.2959,4.59958,2469.797,2019-12-10T15:06:35Z
2019-12-10T13:09:09Z,42.805,6.029,13.2958,4.59959,2469.783,2019-12-10T15:09:39Z
2019-12-10T13:12:12Z,42.805,6.029,13.2961,4.59957,2469.783,2019-12-10T15:12:42Z
2019-12-10T13:15:15Z,42.805,6.029,13.2960,4.59958,2469.806,2019-12-10T15:15:45Z
2019-12-10T13:18:19Z,42.805,6.029,13.2959,4.59957,2469.83,2019-12-10T15:18:48Z
2019-12-10T13:21:22Z,42.805,6.029,13.2961,4.59956,2469.797,2019-12-10T15:21:51Z
2019-12-10T13:24:25Z,42.805,6.029,13.2960,4.59956,2469.806,2019-12-10T15:24:55Z
2019-12-10T13:27:28Z,42.805,6.029,13.2957,4.59957,2469.783,2019-12-10T15:27:58Z
2019-12-10T13:30:32Z,42.805,6.029,13.2958,4.59956,2469.83,2019-12-10T15:31:01Z
2019-12-10T13:33:35Z,42.805,6.029,13.2958,4.59957,2469.806,2019-12-10T15:34:05Z
2019-12-10T13:36:38Z,42.805,6.029,13.2957,4.59957,2469.867,2019-12-10T15:37:08Z
2019-12-10T13:39:41Z,42.805,6.029,13.2961,4.59958,2469.844,2019-12-10T15:40:11Z
2019-12-10T13:42:44Z,42.805,6.029,13.2961,4.59956,2469.83,2019-12-10T15:43:14Z
2019-12-10T13:45:48Z,42.805,6.029,13.2957,4.59957,2469.806,2019-12-10T15:46:17Z
2019-12-10T13:48:51Z,42.805,6.029,13.2958,4.59958,2469.844,2019-12-10T15:49:21Z
2019-12-10T13:51:54Z,42.805,6.029,13.2960,4.59957,2469.821,2019-12-10T15:52:24Z
2019-12-10T13:54:57Z,42.805,6.029,13.2958,4.59957,2469.806,2019-12-10T15:55:27Z
2019-12-10T13:58:00Z,42.805,6.029,13.2958,4.59958,2469.853,2019-12-10T15:58:30Z
2019-12-10T14:01:04Z,42.805,6.029,13.2959,4.59958,2469.844,2019-12-10T16:01:33Z
2019-12-10T14:04:07Z,42.805,6.029,13.2958,4.59958,2469.783,2019-12-10T16:04:37Z
2019-12-10T14:07:10Z,42.805,6.029,13.2961,4.59957,2469.83,2019-12-10T16:07:40Z
2019-12-10T14:10:13Z,42.805,6.029,13.2958,4.59958,2469.867,2019-12-10T16:10:43Z
2019-12-10T14:13:16Z,42.805,6.029,13.2960,4.59958,2469.844,2019-12-10T16:13:46Z
2019-12-10T14:16:20Z,42.805,6.029,13.2961,4.59956,2469.867,2019-12-10T16:16:49Z
2019-12-10T14:19:23Z,42.805,6.029,13.2957,4.59956,2469.83,2019-12-10T16:19:52Z
2019-12-10T14:22:26Z,42.805,6.029,13.2961,4.59956,2469.821,2019-12-10T16:22:56Z
2019-12-10T14:25:29Z,42.805,6.029,13.2957,4.59956,2469.853,2019-12-10T16:25:59Z
2019-12-10T14:28:33Z,42.805,6.029,13.2961,4.59956,2469.867,2019-12-10T16:29:02Z
2019-12-10T14:31:36Z,42.805,6.029,13.2959,4.59956,2469.853,2019-12-10T16:32:06Z
2019-12-10T14:34:39Z,42.805,6.029,13.2957,4.59957,2469.816,2019-12-10T16:35:09Z
2019-12-10T14:37:42Z,42.805,6.029,13.2955,4.59956,2469.806,2019-12-10T16:38:12Z
2019-12-10T14:40:45Z,42.805,6.029,13.2961,4.59956,2469.853,2019-12-10T16:41:15Z
2019-12-10T14:43:49Z,42.805,6.029,13.2958,4.59956,2469.806,2019-12-10T16:44:18Z
2019-12-10T14:46:52Z,42.805,6.029,13.2958,4.59956,2469.821,2019-12-10T16:47:21Z
2019-12-10T14:49:55Z,42.805,6.029,13.2957,4.59957,2469.853,2019-12-10T16:50:25Z
2019-12-10T14:52:58Z,42.805,6.029,13.2960,4.59956,2469.83,2019-12-10T16:53:28Z
2019-12-10T14:56:01Z,42.805,6.029,13.2960,4.59956,2469.83,2019-12-10T16:56:31Z
2019-12-10T14:59:04Z,42.805,6.029,13.2959,4.59956,2469.853,2019-12-10T16:59:34Z
2019-12-10T15:02:08Z,42.805,6.029,13.2961,4.59956,2469.867,2019-12-10T17:02:37Z